Seattle, WA
on Monday, February 4, 2013

Monday
Previous Day Next Day
Daily Summary
 ActualAverageRecord
Temperature
Mean Temperature °F 43°F  
Max Temperature 51°F 49°F 63°F (1993)
Min Temperature 44°F 37°F 7°F (1989)
Degree Days
Heating Degree Days 17 22  
Month to date heating degree days 82 88  
Since 1 July heating degree days 2656 2737  
Cooling Degree Days 0 0  
Month to date cooling degree days 0 0  
Year to date cooling degree days 0 0  
Moisture
Dew Point 40°F   
Average Humidity 78    
Maximum Humidity 92    
Minimum Humidity 63    
Precipitation
Precipitation T in 0.13 in 0.91 in (1965)
Month to date precipitation 0.10 0.53  
Year to date precipitation 4.26 6.10  
Snow
Snow 0.00 in in 1.70 in (1949)
Month to date snowfall 0.0  
Since 1 July snowfall 0.6  
Snow Depth 0.00 in   
Wind
Wind Speed 6 mph   
Max Wind Speed 13 mph   
Max Gust Speed 15 mph   
Visibility 10 miles   
Events Rain   

Key: T is trace of precipitation, MM is missing value
Source: NWS Daily Summary
Time(PST)TemperatureDew PointHumidity Pressure Visibility Wind DirectionWind SpeedGust SpeedPrecipitationEvents Conditions
12:23 AM 44.6°F 41.0°F 87% 30.21 in 10.0 miles South 4.6 mph - N/A   Overcast
12:53 AM 45.0°F 41.0°F 86% 30.22 in 7.0 miles South 5.8 mph - N/A   Overcast
1:30 AM 44.6°F 41.0°F 87% 30.20 in 10.0 miles South 4.6 mph - N/A   Overcast
2:53 AM 44.6°F 39.2°F 81% 30.20 in 10.0 miles South 8.1 mph - N/A   Overcast
3:53 AM 45.0°F 39.9°F 82% 30.22 in 10.0 miles South 5.8 mph - N/A   Overcast
4:53 AM 44.1°F 39.9°F 85% 30.20 in 10.0 miles South 6.9 mph - N/A   Overcast
5:53 AM 45.0°F 39.9°F 82% 30.20 in 10.0 miles South 3.5 mph - N/A   Overcast
6:53 AM 44.1°F 39.9°F 85% 30.19 in 10.0 miles South 5.8 mph - N/A   Overcast
7:53 AM 45.0°F 39.9°F 82% 30.19 in 10.0 miles SSE 5.8 mph - N/A   Overcast
8:53 AM 45.0°F 39.9°F 82% 30.20 in 10.0 miles SSE 5.8 mph - N/A   Overcast
9:53 AM 46.0°F 41.0°F 83% 30.19 in 10.0 miles SSE 6.9 mph - N/A   Overcast
10:53 AM 48.0°F 41.0°F 77% 30.19 in 10.0 miles South 6.9 mph - N/A   Overcast
11:15 AM 48.2°F 39.2°F 71% 30.16 in 10.0 miles SSE 8.1 mph - N/A   Overcast
11:53 AM 48.9°F 41.0°F 74% 30.17 in 10.0 miles Variable 5.8 mph - N/A   Overcast
12:53 PM 50.0°F 39.9°F 68% 30.13 in 10.0 miles ESE 6.9 mph - N/A   Overcast
1:53 PM 51.1°F 39.9°F 66% 30.09 in 10.0 miles West 3.5 mph - N/A   Overcast
2:53 PM 51.1°F 39.0°F 63% 30.06 in 10.0 miles Calm Calm - N/A   Overcast
3:53 PM 50.0°F 39.9°F 68% 30.03 in 10.0 miles WNW 3.5 mph - N/A   Overcast
4:53 PM 48.9°F 39.0°F 69% 30.04 in 10.0 miles West 3.5 mph - N/A   Overcast
5:53 PM 46.9°F 39.9°F 77% 30.04 in 10.0 miles South 3.5 mph - N/A   Overcast
6:53 PM 48.9°F 39.9°F 71% 29.99 in 10.0 miles East 8.1 mph - N/A   Overcast
7:53 PM 48.9°F 39.9°F 71% 29.93 in 10.0 miles East 10.4 mph - 0.00 in   Overcast
8:53 PM 48.0°F 41.0°F 77% 29.94 in 10.0 miles West 10.4 mph - 0.00 in Rain Light Rain
9:53 PM 46.9°F 41.0°F 80% 29.94 in 10.0 miles West 5.8 mph - 0.00 in   Overcast
10:53 PM 44.1°F 39.9°F 85% 29.94 in 10.0 miles SSE 5.8 mph - N/A   Mostly Cloudy
11:53 PM 45.0°F 39.9°F 82% 29.93 in 10.0 miles South 6.9 mph - N/A   Mostly Cloudy
Moon Phase
Feb. 04 Feb. 10 Feb. 17 Feb. 25 Mar. 04
Sunrise:07:30 AM (PST) Moon Rise:02:18 AM (PST)2/4
Sunset:05:16 PM (PST) Moon Set:11:38 AM (PST)2/4

Copyright © 2014 The Weather Underground, Inc.